COSMOS 2550

Last updated on Wed Jul 02 2025 00:02:15 GMT+0000 (Coordinated Universal Time)

1 48865U 21056A 25182.59859750 .00004821 00000+0 15223-3 0 9991 2 48865 67.1429 80.5065 0008386 269.5275 90.4918 15.33836488224959
UTC large
Height (km)
Speed (km/s)
/
Latitude / Longitude
Inclination (degrees)
Orbital Period (minutes)
Azimuth
Elevation
Range (km)
Doppler Factor

Next 0 passes for location: London (51.5072 / 0.1276)

Sorry there are no passes over London.